Simultaneous Nadir Overpasses (SNOs) Predictions

Prediction of SNOs between NOAA-19 and NPP Satellite Orbit:

Table of predicted SNOs for the next 14.0 days since TLE Epoch: 10/24/2014
Index Date (NOAA-19) Time (NOAA-19) Lat,Lon (NOAA-19) SZA (NOAA-19 ) Date (NPP) Time (NPP) Lat,Lon (NPP) SZA (NPP ) Distance(km) Time Diff (sec)
1 11/04/2014 15:24:03 -80.92, 79.57 81.04 11/04/2014 15:25:13 -80.92, 79.70 81.09 2.40 70
2 11/04/2014 16:15:04 80.92,-113.14 98.97 11/04/2014 16:15:58 80.92,-113.11 98.95 0.50 54
3 11/04/2014 17:06:05 -80.91, 54.54 81.08 11/04/2014 17:06:42 -80.90, 54.59 81.10 1.04 37
4 11/04/2014 17:57:06 80.91,-138.18 98.93 11/04/2014 17:57:27 80.91,-138.23 98.93 0.98 21
5 11/04/2014 18:48:07 -80.89, 29.50 81.12 11/04/2014 18:48:11 -80.89, 29.48 81.12 0.42 4
6 11/04/2014 19:39:08 80.89,-163.22 98.89 11/04/2014 19:38:56 80.90,-163.34 98.92 2.26 12
7 11/04/2014 20:30:09 -80.88, 4.46 81.16 11/04/2014 20:29:40 -80.88, 4.36 81.14 1.74 29
8 11/04/2014 21:21:11 80.89, 171.38 98.90 11/04/2014 21:20:25 80.88, 171.55 98.90 3.05 46




NCC Satellite Simultaneous Nadir Overpasses (SNOs) Prediction Service
